This demonstration page uses our WeatherBlox Daily Observations layout. Learn more.

Left ArrowRight Arrow

36.19886, -115.1175

Hourly Observations for January 9, 2020

Temp ( °F °C ) Dew Point ( °F °C ) Humidity (%) Winds ( mph kmh ) Pressure ( in mb ) Visibility ( mi km ) Precip ( " mm )
12:53 am 00:53 Clear 47 8.3 17 -8.3 30 30 WNW 5 7 29.89 1012 10 16.0934 0 0
1:53 am 01:53 Clear 47 8.3 17 -8.3 30 30 Calm 29.9 1012 10 16.0934 0 0
2:53 am 02:53 Clear 45 7.2 22 -5.6 40 40 Calm 29.89 1012 10 16.0934 0 0
3:53 am 03:53 Mostly Cloudy 45 7.2 20 -6.7 37 37 N 3 6 29.88 1012 10 16.0934 0 0
4:53 am 04:53 Mostly Clear 46 7.8 16 -8.9 30 30 NNW 8 13 29.87 1012 10 16.0934 0 0
5:53 am 05:53 Clear 45 7.2 16 -8.9 31 31 NNW 8 13 29.88 1012 10 16.0934 0 0
6:53 am 06:53 Sunny 43 6.1 17 -8.3 35 35 NW 8 13 29.89 1012 10 16.0934 0 0
7:53 am 07:53 Sunny 45 7.2 17 -8.3 33 33 NNW 6 9 29.91 1013 10 16.0934 0 0
8:53 am 08:53 Sunny 49 9.4 19 -7.2 31 31 NNE 3 6 29.92 1013 10 16.0934 0 0
9:53 am 09:53 Sunny 51 10.6 24 -4.4 35 35 NNE 5 7 29.92 1013 10 16.0934 0 0
10:53 am 10:53 Sunny 53 11.7 24 -4.4 32 32 NE 5 7 29.89 1012 10 16.0934 0 0
11:53 am 11:53 Sunny 54 12.2 24 -4.4 31 31 E 5 7 29.86 1011 10 16.0934 0 0
12:53 pm 12:53 Sunny 56 13.3 24 -4.4 29 29 ENE 6 9 29.84 1010 10 16.0934 0 0
1:53 pm 13:53 Partly Cloudy 56 13.3 22 -5.6 27 27 SE 7 11 29.83 1010 10 16.0934 0 0
2:53 pm 14:53 Cloudy 56 13.3 20 -6.7 24 24 VRB 5 7 29.85 1011 10 16.0934 0 0
3:53 pm 15:53 Sunny 56 13.3 20 -6.7 24 24 ESE 6 9 29.88 1012 10 16.0934 0 0
4:53 pm 16:53 Clear 53 11.7 21 -6.1 28 28 E 3 6 29.91 1013 10 16.0934 0 0
5:53 pm 17:53 Cloudy 53 11.7 22 -5.6 30 30 W 3 6 29.93 1014 10 16.0934 0 0
6:53 pm 18:53 Cloudy 51 10.6 23 -5 33 33 WNW 7 11 29.96 1015 10 16.0934 0 0
7:53 pm 19:53 Clear 51 10.6 18 -7.8 27 27 NW 14 22 29.98 1015 10 16.0934 0 0
8:53 pm 20:53 Clear 52 11.1 17 -8.3 25 25 NW 14 22 30 1016 10 16.0934 0 0
9:53 pm 21:53 Clear 51 10.6 17 -8.3 26 26 NNW 17 28 30.02 1017 10 16.0934 0 0
10:53 pm 22:53 Clear 49 9.4 18 -7.8 29 29 NNW 15 24 30.04 1017 10 16.0934 0 0
11:53 pm 23:53 Clear 49 9.4 20 -6.7 32 32 NW 17 28 30.05 1018 10 16.0934 0 0

Powered by AerisWeather